Torna al catalogo

STARLINK-4661

AttivoComunicazioniVLEO
NORAD 53732·PAYLOAD·🇺🇸 United States

Lanciato Sep 5, 2022 da Cape Canaveral Space Force Station

Loading…

Prossimi Passaggi (prossime 24 ore)

TLE

AggiornatoSource: CelesTrak SupGP

Epoca: Sep 14, 2026, 21:56 UTC

1 53732C 22107AJ  26257.91437500  .00003543  00000+0  10472-3 0  2571
2 53732  53.1582 109.9235 0001289  83.2421 191.8018 15.34376120    16

Traccia STARLINK-4661 in tempo reale con AllMySat

Download on the App Store